Overview Statistics Trail Chart Weather Telemetry Raw packets
 

This is the latest recevied weather packets stored in our database for station/object IZ8FMH-11. If no packets are shown the sender has not sent any weather packets the latest 10 day(s).

<< 9 10 11 12 13 14 15 >>
Time Temp. Humidity Pressure Rain* Wind** Luminosity Snow
1788111300 31.67° C 63% 1009.6 hPa - - - -
1788109500 32.22° C 61% 1009.3 hPa - - - -
1788107699 32.78° C 59% 1009.2 hPa - - - -
1788105899 32.78° C 53% 1009.2 hPa - - - -
1788104099 33.33° C 50% 1009 hPa - - - -
1788102299 33.33° C 44% 1008.9 hPa - - - -
1788100499 33.33° C 43% 1009 hPa - - - -
1788098699 33.33° C 46% 1009 hPa - - - -
1788096899 32.78° C 43% 1009.1 hPa - - - -
1788095099 32.78° C 41% 1009 hPa - - - -
1788093299 32.78° C 46% 1009.5 hPa - - - -
1788091500 32.22° C 47% 1009.7 hPa - - - -
1788089700 32.22° C 49% 1009.8 hPa - - - -
1788087915 32.22° C 50% 1009.7 hPa - - - -
1788086100 31.67° C 49% 1009.9 hPa - - - -
1788084300 31.67° C 49% 1009.9 hPa - - - -
1788082500 31.11° C 46% 1010 hPa - - - -
1788080700 30.56° C 42% 1010.1 hPa - - - -
1788078900 29.44° C 45% 1010.3 hPa - - - -
1788077100 28.89° C 56% 1010.6 hPa - - - -
1788075299 28.33° C 55% 1010.3 hPa - - - -
1788073499 27.78° C 52% 1010.1 hPa - - - -
1788071699 27.78° C 53% 1010.1 hPa - - - -
1788069899 27.22° C 53% 1010.1 hPa - - - -
1788068099 27.22° C 52% 1010.6 hPa - - - -

* Rain since midnight (hover to see other rain measurements)
** Current wind speed in m/s (hover to see current wind gust speed)